Radiation Dose at Monitoring Post of Fukushima Daini Nuclear Power Station
Date,Time,MP-1(microSv/h),MP-2(microSv/h),MP-3(microSv/h),MP-4(microSv/h),MP-5(microSv/h),MP-6(microSv/h),MP-7(microSv/h),Wind Direction,Wind Velocity(m/s),Rain
2023/05/08,00:00,0.141,0.131,0.204,0.198,0.206,0.116,0.078,northwest,10.0,Yes
2023/05/08,00:10,0.142,0.131,0.203,0.199,0.206,0.116,0.077,north-northwest,9.8,Yes
2023/05/08,00:20,0.142,0.132,0.204,0.200,0.206,0.115,0.077,northwest,10.0,Yes
2023/05/08,00:30,0.141,0.131,0.204,0.199,0.206,0.116,0.078,northwest,10.0,Yes
2023/05/08,00:40,0.143,0.132,0.204,0.199,0.205,0.116,0.078,north-northwest,9.5,Yes
2023/05/08,00:50,0.142,0.132,0.202,0.198,0.206,0.115,0.078,northwest,9.5,Yes
2023/05/08,01:00,0.141,0.133,0.201,0.199,0.205,0.116,0.077,north-northwest,11.4,Yes
2023/05/08,01:10,0.141,0.132,0.203,0.199,0.205,0.115,0.077,northwest,9.8,Yes
2023/05/08,01:20,0.142,0.132,0.202,0.198,0.206,0.115,0.078,northwest,12.0,Yes
2023/05/08,01:30,0.142,0.132,0.201,0.198,0.205,0.116,0.078,northwest,10.9,Yes
2023/05/08,01:40,0.142,0.132,0.201,0.198,0.206,0.116,0.078,northwest,9.5,Yes
2023/05/08,01:50,0.142,0.132,0.202,0.199,0.206,0.116,0.078,northwest,9.5,Yes
2023/05/08,02:00,0.142,0.133,0.202,0.199,0.206,0.116,0.077,northwest,10.0,Yes
2023/05/08,02:10,0.142,0.132,0.202,0.198,0.205,0.115,0.077,northwest,10.4,Yes
2023/05/08,02:20,0.142,0.132,0.202,0.199,0.207,0.115,0.078,north-northwest,11.7,Yes
2023/05/08,02:30,0.142,0.131,0.202,0.199,0.206,0.116,0.077,north-northwest,10.9,Yes
2023/05/08,02:40,0.141,0.132,0.203,0.200,0.206,0.115,0.077,northwest,10.3,Yes
2023/05/08,02:50,0.141,0.133,0.203,0.199,0.207,0.115,0.077,north-northwest,9.3,Yes
2023/05/08,03:00,0.142,0.131,0.202,0.199,0.206,0.115,0.077,northwest,11.2,Yes
2023/05/08,03:10,0.142,0.132,0.203,0.199,0.207,0.115,0.076,northwest,10.0,Yes
2023/05/08,03:20,0.142,0.131,0.203,0.200,0.206,0.116,0.077,northwest,10.4,Yes
2023/05/08,03:30,0.142,0.131,0.202,0.200,0.207,0.115,0.077,north-northwest,10.0,Yes
2023/05/08,03:40,0.143,0.130,0.202,0.200,0.207,0.115,0.077,north-northwest,11.2,Yes
2023/05/08,03:50,0.142,0.132,0.203,0.200,0.205,0.116,0.077,northwest,10.6,Yes
2023/05/08,04:00,0.141,0.131,0.202,0.200,0.207,0.115,0.077,northwest,10.1,Yes
2023/05/08,04:10,0.142,0.133,0.203,0.200,0.207,0.116,0.077,north-northwest,10.9,Yes
2023/05/08,04:20,0.144,0.132,0.203,0.199,0.206,0.116,0.078,northwest,10.6,Yes
2023/05/08,04:30,0.141,0.133,0.202,0.198,0.206,0.116,0.078,northwest,10.6,Yes
2023/05/08,04:40,0.143,0.132,0.202,0.199,0.207,0.116,0.077,northwest,9.8,Yes
2023/05/08,04:50,0.143,0.132,0.203,0.199,0.205,0.116,0.078,north-northwest,9.6,Yes
2023/05/08,05:00,0.142,0.133,0.203,0.199,0.207,0.116,0.078,north-northwest,8.8,Yes
2023/05/08,05:10,0.142,0.133,0.202,0.199,0.206,0.115,0.078,northwest,8.8,Yes
2023/05/08,05:20,0.142,0.132,0.202,0.199,0.208,0.116,0.078,north-northwest,8.5,Yes
2023/05/08,05:30,0.143,0.132,0.203,0.200,0.207,0.117,0.078,northwest,9.8,Yes
2023/05/08,05:40,0.143,0.133,0.203,0.200,0.207,0.117,0.078,north-northwest,9.8,Yes
2023/05/08,05:50,0.143,0.133,0.203,0.200,0.207,0.115,0.077,northwest,11.5,Yes
2023/05/08,06:00,0.143,0.131,0.202,0.201,0.207,0.116,0.078,north-northwest,9.6,Yes
2023/05/08,06:10,0.143,0.133,0.202,0.200,0.207,0.115,0.078,north-northwest,10.4,Yes
2023/05/08,06:20,0.142,0.133,0.203,0.200,0.207,0.116,0.078,northwest,8.6,Yes
2023/05/08,06:30,0.143,0.132,0.202,0.199,0.206,0.116,0.078,north-northwest,9.5,Yes
2023/05/08,06:40,0.143,0.132,0.201,0.200,0.207,0.116,0.078,northwest,11.1,Yes
2023/05/08,06:50,0.144,0.134,0.202,0.199,0.205,0.116,0.078,northwest,11.7,Yes
2023/05/08,07:00,0.144,0.134,0.202,0.199,0.206,0.116,0.079,northwest,10.9,Yes
2023/05/08,07:10,0.142,0.133,0.201,0.198,0.207,0.116,0.078,northwest,10.6,Yes
2023/05/08,07:20,0.143,0.133,0.201,0.198,0.206,0.116,0.079,northwest,9.6,Yes
2023/05/08,07:30,0.142,0.133,0.200,0.198,0.205,0.115,0.079,northwest,9.6,Yes
2023/05/08,07:40,0.142,0.132,0.201,0.197,0.206,0.115,0.077,northwest,9.5,Yes
2023/05/08,07:50,0.141,0.132,0.201,0.198,0.205,0.116,0.078,north-northwest,9.5,Yes
2023/05/08,08:00,0.142,0.132,0.200,0.197,0.204,0.115,0.078,north-northwest,10.3,Yes
2023/05/08,08:10,0.141,0.132,0.200,0.198,0.205,0.116,0.077,northwest,11.2,Yes
2023/05/08,08:20,0.141,0.131,0.200,0.198,0.206,0.115,0.078,north-northwest,10.6,Yes
2023/05/08,08:30,0.142,0.132,0.200,0.199,0.204,0.116,0.078,north-northwest,9.2,Yes
2023/05/08,08:40,-,-,-,-,-,-,-,-,-,-
2023/05/08,08:50,0.143,0.131,0.200,0.197,0.207,0.115,0.078,north-northwest,10.9,Yes
2023/05/08,09:00,0.142,0.132,0.201,0.199,0.205,0.115,0.077,northwest,9.5,Yes
2023/05/08,09:10,0.141,0.132,0.199,0.198,0.205,0.115,0.077,north-northwest,9.5,Yes
2023/05/08,09:20,0.141,0.131,0.200,0.197,0.206,0.115,0.077,northwest,10.4,Yes
2023/05/08,09:30,0.142,0.131,0.200,0.198,0.206,0.114,0.077,northwest,8.7,Yes
2023/05/08,09:40,0.141,0.132,0.200,0.199,0.206,0.114,0.076,north-northwest,10.1,Yes
2023/05/08,09:50,0.141,0.130,0.201,0.199,0.205,0.113,0.076,north-northwest,9.5,Yes
2023/05/08,10:00,0.140,0.130,0.200,0.198,0.206,0.114,0.076,north-northwest,9.5,Yes
2023/05/08,10:10,0.141,0.129,0.201,0.199,0.206,0.113,0.076,north-northwest,7.3,No
2023/05/08,10:20,0.141,0.131,0.199,0.199,0.205,0.113,0.075,north-northwest,7.2,No
2023/05/08,10:30,0.140,0.130,0.200,0.197,0.207,0.113,0.075,north-northwest,7.1,No
2023/05/08,10:40,0.142,0.129,0.200,0.199,0.206,0.113,0.075,north,5.0,No
2023/05/08,10:50,0.141,0.129,0.201,0.197,0.205,0.113,0.074,north-northwest,7.0,No
2023/05/08,11:00,0.140,0.129,0.201,0.198,0.205,0.112,0.074,north-northwest,9.6,No
2023/05/08,11:10,0.142,0.129,0.201,0.198,0.205,0.112,0.073,north-northwest,9.6,No
2023/05/08,11:20,0.141,0.129,0.200,0.198,0.206,0.111,0.074,north,10.0,No
2023/05/08,11:30,0.140,0.129,0.201,0.199,0.206,0.112,0.073,north-northwest,10.6,No
2023/05/08,11:40,0.140,0.129,0.202,0.198,0.206,0.112,0.074,north-northwest,8.7,No
2023/05/08,11:50,0.141,0.129,0.201,0.199,0.206,0.113,0.074,north-northwest,7.8,No
2023/05/08,12:00,0.141,0.128,0.202,0.199,0.205,0.112,0.074,north-northwest,8.2,No
2023/05/08,12:10,0.141,0.130,0.201,0.198,0.206,0.112,0.074,north-northwest,7.5,No
2023/05/08,12:20,0.141,0.129,0.202,0.199,0.205,0.113,0.074,north-northwest,7.3,No
2023/05/08,12:30,0.141,0.128,0.203,0.198,0.205,0.113,0.074,north-northwest,5.5,No
2023/05/08,12:40,0.141,0.130,0.202,0.198,0.207,0.113,0.074,north,7.5,No
2023/05/08,12:50,0.141,0.129,0.202,0.200,0.205,0.113,0.074,north,7.8,No
2023/05/08,13:00,0.142,0.129,0.202,0.198,0.207,0.113,0.074,north-northwest,8.3,No
2023/05/08,13:10,0.141,0.129,0.202,0.199,0.205,0.112,0.074,north-northwest,7.5,No
2023/05/08,13:20,0.141,0.129,0.201,0.199,0.206,0.113,0.073,north,6.8,No
2023/05/08,13:30,0.142,0.128,0.202,0.198,0.205,0.113,0.074,north,6.9,No
2023/05/08,13:40,0.141,0.128,0.203,0.200,0.205,0.113,0.073,north,8.8,No
2023/05/08,13:50,0.142,0.128,0.203,0.199,0.206,0.113,0.074,north,7.4,No
2023/05/08,14:00,0.141,0.129,0.203,0.200,0.205,0.113,0.074,north,7.0,No
2023/05/08,14:10,0.141,0.129,0.203,0.200,0.207,0.114,0.073,north,5.2,No
2023/05/08,14:20,0.143,0.130,0.202,0.200,0.206,0.113,0.074,north-northwest,5.9,No
2023/05/08,14:30,0.142,0.130,0.202,0.200,0.206,0.113,0.074,north-northwest,6.7,No
2023/05/08,14:40,0.142,0.130,0.202,0.201,0.208,0.114,0.074,north-northwest,5.2,No
2023/05/08,14:50,0.142,0.129,0.203,0.201,0.207,0.113,0.073,north,4.2,Yes
2023/05/08,15:00,0.141,0.131,0.205,0.201,0.208,0.114,0.075,north,4.4,Yes
2023/05/08,15:10,0.144,0.130,0.205,0.203,0.207,0.115,0.075,north,3.4,Yes
2023/05/08,15:20,0.144,0.131,0.205,0.202,0.208,0.116,0.074,north,4.5,Yes
2023/05/08,15:30,-,-,-,-,-,-,-,-,-,-
2023/05/08,15:40,0.144,0.131,0.205,0.203,0.208,0.116,0.076,north,4.4,Yes
2023/05/08,15:50,0.143,0.130,0.204,0.202,0.209,0.115,0.074,north,4.9,No
2023/05/08,16:00,0.142,0.129,0.205,0.201,0.207,0.116,0.075,north,5.4,No
2023/05/08,16:10,0.142,0.130,0.204,0.202,0.207,0.114,0.075,north,6.2,No
2023/05/08,16:20,0.142,0.131,0.205,0.201,0.208,0.115,0.074,north,4.8,No
2023/05/08,16:30,0.143,0.130,0.204,0.200,0.208,0.114,0.074,north,4.7,No
2023/05/08,16:40,0.142,0.130,0.204,0.201,0.207,0.115,0.074,north,5.8,No
2023/05/08,16:50,0.142,0.130,0.203,0.201,0.208,0.115,0.074,north,5.8,No
2023/05/08,17:00,0.143,0.131,0.205,0.202,0.207,0.114,0.074,north,6.6,No
2023/05/08,17:10,0.143,0.129,0.205,0.200,0.207,0.114,0.074,north-northeast,7.5,No
2023/05/08,17:20,0.142,0.130,0.204,0.202,0.208,0.114,0.074,north,6.1,No
2023/05/08,17:30,0.143,0.130,0.205,0.202,0.208,0.114,0.074,north,7.1,No
2023/05/08,17:40,0.143,0.130,0.205,0.201,0.208,0.115,0.074,north-northeast,7.2,No
2023/05/08,17:50,0.142,0.129,0.204,0.201,0.206,0.114,0.074,north-northeast,8.8,No
2023/05/08,18:00,0.143,0.129,0.204,0.201,0.208,0.114,0.075,north,7.6,No
2023/05/08,18:10,0.143,0.130,0.203,0.201,0.207,0.115,0.074,north-northwest,7.3,No
2023/05/08,18:20,0.142,0.129,0.204,0.200,0.207,0.115,0.074,north-northwest,6.8,No
2023/05/08,18:30,0.143,0.129,0.205,0.202,0.207,0.114,0.074,north,8.6,No
2023/05/08,18:40,0.143,0.129,0.205,0.200,0.207,0.115,0.074,north,7.7,No
2023/05/08,18:50,0.143,0.130,0.204,0.201,0.207,0.114,0.074,north,6.7,No
2023/05/08,19:00,0.142,0.129,0.204,0.201,0.208,0.115,0.074,north,6.9,No
2023/05/08,19:10,0.143,0.131,0.205,0.201,0.207,0.115,0.074,north-northwest,5.1,No
2023/05/08,19:20,0.143,0.130,0.204,0.201,0.207,0.114,0.074,north-northwest,4.1,No
2023/05/08,19:30,0.144,0.130,0.206,0.201,0.208,0.115,0.074,northwest,3.3,No
2023/05/08,19:40,0.144,0.130,0.206,0.201,0.206,0.114,0.074,northwest,3.2,No
2023/05/08,19:50,0.143,0.129,0.205,0.201,0.207,0.114,0.075,northwest,4.3,No
2023/05/08,20:00,0.144,0.130,0.205,0.203,0.207,0.114,0.074,north-northwest,5.6,No
2023/05/08,20:10,0.143,0.130,0.203,0.201,0.207,0.115,0.074,north-northwest,5.7,No
2023/05/08,20:20,0.143,0.131,0.205,0.201,0.207,0.115,0.074,northwest,5.6,No
2023/05/08,20:30,0.143,0.131,0.205,0.201,0.206,0.114,0.073,north-northwest,5.7,No
2023/05/08,20:40,0.143,0.130,0.204,0.202,0.206,0.115,0.074,north-northwest,5.7,No
2023/05/08,20:50,0.143,0.130,0.204,0.201,0.207,0.114,0.074,north-northwest,6.7,No
2023/05/08,21:00,0.143,0.129,0.206,0.202,0.207,0.114,0.074,north-northwest,5.6,No
2023/05/08,21:10,0.144,0.130,0.204,0.201,0.206,0.114,0.074,north-northwest,5.2,No
2023/05/08,21:20,0.144,0.130,0.204,0.202,0.206,0.114,0.075,north-northwest,5.8,No
2023/05/08,21:30,0.143,0.130,0.205,0.202,0.206,0.115,0.074,north-northwest,5.8,No
2023/05/08,21:40,0.144,0.130,0.206,0.201,0.206,0.114,0.075,north-northwest,5.3,No
2023/05/08,21:50,0.143,0.131,0.205,0.202,0.207,0.115,0.074,north-northwest,5.0,No
2023/05/08,22:00,0.143,0.130,0.206,0.201,0.207,0.114,0.075,north-northwest,5.0,No
2023/05/08,22:10,0.144,0.130,0.205,0.201,0.207,0.114,0.075,north-northwest,4.5,No
2023/05/08,22:20,0.144,0.130,0.205,0.201,0.207,0.116,0.074,north-northwest,4.7,No
2023/05/08,22:30,0.143,0.130,0.205,0.202,0.206,0.115,0.074,north-northwest,5.0,No
2023/05/08,22:40,0.143,0.130,0.205,0.201,0.207,0.115,0.074,north-northwest,5.2,No
2023/05/08,22:50,0.143,0.130,0.205,0.201,0.206,0.115,0.075,north-northwest,5.2,No
2023/05/08,23:00,0.144,0.130,0.205,0.202,0.207,0.115,0.074,north-northwest,6.0,No
2023/05/08,23:10,0.143,0.129,0.206,0.202,0.207,0.115,0.075,north-northwest,6.5,No
2023/05/08,23:20,0.143,0.130,0.207,0.202,0.207,0.115,0.075,north-northwest,5.9,No
2023/05/08,23:30,0.144,0.130,0.206,0.202,0.207,0.115,0.074,north-northwest,6.4,No
2023/05/08,23:40,0.143,0.130,0.206,0.201,0.207,0.115,0.074,north-northwest,6.1,No
2023/05/08,23:50,0.144,0.129,0.205,0.202,0.206,0.116,0.074,north-northwest,6.0,No
